Wind_Speed
12 12 11 11 10 10 10 9 9 9 8 8 7 7 6 6 7 8 9 10 11 12 14 16 18 21 24 27 30 33 35 38 40 42 44 46 49 52 55 58 60 60 61 62
13 13 13 13 12 12 12 11 10 10 9 9 9 9 9 9 9 10 11 11 12 13 15 17 20 22 25 28 31 34 37 39 42 44 46 48 51 54 57 60 62 63 64 64
14 14 15 15 15 14 14 13 13 12 12 12 12 12 12 12 12 13 14 14 14 15 17 19 22 24 27 30 32 35 38 41 44 46 48 50 53 56 59 62 64 66 66 67
15 16 16 17 17 17 16 16 15 15 15 15 15 15 15 15 16 16 17 18 18 18 20 22 24 27 29 31 34 37 40 43 46 48 50 52 55 57 60 63 66 68 69 69
16 17 17 18 19 19 18 19 18 18 19 19 19 19 17 18 19 20 21 22 22 22 23 25 28 30 32 34 36 38 41 44 47 50 52 54 56 58 61 65 67 69 70 71
17 18 19 19 20 21 21 22 22 22 23 22 21 23 19 21 22 23 24 25 26 27 27 29 31 33 35 37 39 41 43 45 48 51 53 56 58 60 62 65 68 70 72 73
18 19 20 21 22 22 23 25 26 26 26 25 25 26 22 24 25 26 26 28 29 30 31 32 34 36 38 40 42 43 45 47 49 51 54 57 59 61 63 66 69 71 73 74
20 20 21 22 23 25 25 27 29 31 30 29 29 29 25 26 28 28 29 31 32 33 34 35 36 38 40 42 44 45 47 48 50 52 55 57 60 62 64 67 70 72 73 74
22 21 22 24 25 26 27 29 31 34 35 35 34 32 28 28 30 31 32 34 35 35 36 37 38 40 42 44 46 47 49 50 51 53 55 58 60 63 65 68 71 73 74 75
25 24 23 25 26 27 30 31 33 36 39 39 38 35 31 30 32 34 35 36 37 38 39 39 40 42 43 45 47 49 50 51 52 54 55 58 61 63 66 69 71 73 74 75
28 28 25 26 27 28 30 32 34 37 41 43 44 38 32 33 36 37 38 40 40 40 41 42 43 44 45 47 49 51 52 53 54 55 56 58 61 64 66 69 72 74 74 75
30 30 28 28 28 30 31 32 35 39 41 45 48 42 32 35 38 40 42 43 43 42 42 43 44 46 47 49 50 52 53 54 55 55 56 58 61 64 67 69 72 74 74 75
32 33 32 30 30 32 33 34 35 39 43 45 49 45 35 36 39 43 45 46 45 44 44 45 46 47 48 50 52 53 54 55 55 56 57 58 61 64 67 70 72 74 74 75
36 35 35 34 33 36 36 35 36 39 43 45 46 45 38 37 41 45 48 48 47 46 46 47 48 48 50 51 53 54 55 55 55 56 57 59 61 64 67 70 72 73 74 74
38 38 37 36 36 39 41 39 37 40 42 46 45 46 41 39 43 47 48 48 48 47 48 49 49 50 51 53 54 56 56 56 56 57 58 59 61 64 67 69 72 73 73 73
40 41 41 39 38 42 44 40 39 40 42 44 46 45 41 43 46 47 48 49 49 49 49 50 51 51 52 54 55 56 56 56 57 57 58 60 62 64 67 70 72 72 72 72
41 43 44 44 42 45 45 40 40 42 42 43 45 44 43 44 46 47 48 49 49 49 50 51 52 53 53 55 56 56 56 57 57 58 59 60 63 65 68 69 71 71 71 71
43 44 46 49 48 51 45 43 42 43 43 43 44 44 44 45 46 46 47 49 49 50 50 51 53 54 54 55 56 56 56 57 58 59 60 61 64 66 68 69 70 70 70 70
45 46 49 51 54 55 49 44 45 47 46 44 46 46 45 46 47 47 48 49 50 50 52 53 54 55 55 56 56 57 57 58 59 60 61 63 65 67 68 69 70 70 69 68
48 49 52 54 57 58 51 49 49 51 50 48 49 49 49 49 49 49 50 51 52 53 54 55 56 56 57 57 58 59 59 59 61 62 63 64 66 67 68 68 68 68 67 66
53 53 54 56 59 59 52 52 53 53 52 52 53 53 53 53 53 53 54 55 56 57 58 59 59 59 58 59 59 60 60 61 63 64 65 66 67 67 67 67 67 66 65 64
56 57 57 58 61 59 55 56 56 56 57 57 57 57 58 58 58 58 59 59 59 60 60 61 61 61 61 61 61 61 62 63 65 66 66 66 66 66 66 65 64 64 63 61
55 56 58 60 60 58 59 59 59 60 62 62 62 63 63 64 63 63 63 62 62 62 63 63 63 62 62 62 63 63 64 65 65 65 65 65 65 65 64 63 62 61 60 59
52 54 57 58 57 57 58 59 61 63 65 65 65 65 65 65 65 65 64 64 64 63 64 64 63 62 62 62 63 63 63 63 63 63 63 63 63 63 61 60 59 58 57 57
46 49 52 53 52 54 55 57 59 61 62 63 63 63 64 64 63 64 63 63 63 62 62 62 62 61 61 61 60 60 60 59 59 59 59 60 60 60 58 57 56 55 55 54
40 43 47 47 45 49 50 51 53 54 55 55 55 55 55 56 57 57 56 56 56 57 57 58 58 58 57 56 55 54 55 56 57 57 57 57 57 57 56 55 54 53 53 52
Wind_Direction
294 292 292 292 290 286 280 272 268 271 276 281 285 288 292 300 309 314 316 320 326 331 335 339 342 343 345 345 344 343 342 340 338 337 336 336 336 337 337 337 335 332 329 326
290 289 288 285 280 275 270 266 265 268 272 276 279 282 287 292 299 303 306 310 317 322 327 333 336 339 342 343 344 343 342 341 339 338 337 336 336 336 336 336 336 334 331 329
285 286 282 278 274 270 269 267 267 269 271 273 276 280 285 289 293 297 300 304 310 318 323 328 332 335 338 340 341 342 342 341 340 339 338 336 336 336 336 336 336 335 333 331
280 283 281 278 274 271 270 269 268 269 271 274 277 280 286 289 292 295 298 302 309 315 319 323 327 330 333 336 338 339 340 340 340 339 338 337 336 335 336 336 336 335 334 333
278 281 281 278 275 273 270 270 269 270 271 274 278 281 286 289 292 295 298 302 307 312 317 320 324 326 329 332 335 336 338 339 339 339 338 337 336 336 336 336 336 336 335 335
279 282 283 281 278 274 271 270 269 269 271 274 277 281 288 289 292 294 298 302 306 310 314 318 321 324 326 329 332 334 335 336 337 337 337 337 337 336 336 336 336 336 336 336
279 282 283 282 279 276 273 271 271 270 271 274 275 279 288 288 291 294 297 301 304 308 312 316 319 322 324 326 329 331 332 334 335 335 336 336 337 336 336 336 337 337 337 337
279 282 283 282 280 278 274 272 272 272 273 273 274 279 287 288 291 294 297 300 302 305 309 313 316 318 321 323 326 328 330 331 332 333 334 335 336 337 337 337 337 337 338 338
281 282 283 283 282 280 277 272 271 272 274 274 275 280 283 287 289 292 295 297 299 303 306 310 313 316 318 320 323 325 327 329 330 330 332 334 335 337 337 337 337 338 338 339
283 283 283 284 283 282 279 276 273 272 275 276 277 279 285 284 286 290 292 294 298 301 305 308 310 313 315 318 320 323 325 326 328 328 330 332 334 336 337 337 338 338 339 340
282 283 285 284 284 284 282 280 278 276 276 278 280 282 285 285 288 290 292 294 297 300 303 306 309 311 313 315 318 321 323 324 325 327 328 330 333 335 336 337 338 338 339 340
283 285 285 286 286 285 284 282 279 278 278 278 282 287 288 286 288 289 290 293 296 299 301 304 306 308 311 313 316 318 320 322 323 325 326 329 331 334 335 336 337 338 339 340
283 285 286 286 286 284 283 283 282 280 280 281 284 292 293 287 286 286 288 291 295 298 300 302 304 307 309 311 313 316 318 320 321 323 325 327 329 332 334 335 336 337 339 340
283 284 286 287 287 285 284 284 284 284 285 285 287 291 289 286 283 283 286 290 294 296 298 300 303 305 307 309 311 313 316 317 319 321 323 325 328 331 333 334 336 337 338 340
283 284 284 285 285 285 284 285 286 286 287 287 290 290 293 288 281 281 285 288 291 294 296 298 300 302 304 306 308 311 314 316 317 319 321 324 326 329 331 333 334 336 337 339
283 285 285 284 283 282 283 288 290 288 288 288 289 290 293 287 285 285 286 288 290 291 293 295 297 299 301 304 307 310 312 314 316 318 320 322 325 327 329 331 333 335 336 338
280 283 284 284 283 281 283 290 288 288 288 289 289 290 288 286 286 286 287 288 289 290 291 293 294 296 299 303 306 309 311 313 314 316 318 320 323 325 327 330 331 333 335 337
281 282 283 284 284 282 288 289 290 289 288 290 290 288 286 285 285 286 286 286 287 288 289 290 292 295 298 302 304 307 309 311 312 314 317 318 320 323 325 328 330 331 333 336
280 281 282 283 284 285 288 292 291 290 288 290 290 287 285 283 283 283 283 284 285 286 288 289 292 295 298 301 303 305 307 309 311 313 315 316 318 320 323 326 328 329 331 334
276 277 279 281 283 285 291 292 291 290 290 289 287 286 284 283 282 281 281 282 283 285 287 289 292 295 298 300 302 303 305 307 309 311 313 314 316 318 320 323 325 327 329 332
277 277 278 280 282 284 289 289 289 289 289 287 286 286 285 284 283 283 283 283 284 286 288 291 293 296 298 299 301 302 304 305 307 309 310 311 314 316 319 321 324 325 327 330
277 278 279 280 281 285 287 285 285 285 284 284 283 283 283 283 283 283 283 284 286 287 289 291 292 295 296 298 299 301 302 303 305 306 308 309 311 314 317 320 322 324 325 328
278 279 279 279 282 284 284 284 284 283 282 282 281 282 281 281 282 283 284 285 286 288 289 290 292 293 295 296 297 299 300 301 303 304 306 308 310 313 315 318 320 322 323 326
280 280 281 282 284 284 284 284 283 282 282 282 282 283 283 283 283 284 284 285 286 287 288 289 291 292 293 294 296 297 298 299 301 303 305 308 310 312 314 317 320 321 321 324
288 287 285 286 288 286 283 282 281 281 282 283 284 284 284 285 285 286 286 286 287 287 288 289 291 292 293 294 296 297 298 299 301 304 306 307 309 311 314 316 319 319 320 322
294 290 287 288 289 287 288 286 283 282 282 283 285 287 288 288 289 289 289 290 290 290 290 291 292 292 294 294 296 297 299 300 302 304 306 307 309 311 313 315 317 317 318 320
Height
5886 5885 5883 5881 5880 5879 5877 5876 5874 5872 5870 5868 5866 5865 5863 5861 5859 5857 5854 5851 5848 5845 5842 5838 5834 5830 5825 5820 5814 5808 5801 5795 5788 5780 5772 5764 5756 5747 5737 5727 5717 5706 5694 5683
5884 5882 5880 5878 5877 5876 5874 5873 5871 5869 5867 5866 5864 5863 5861 5858 5856 5854 5852 5849 5845 5841 5837 5833 5829 5825 5820 5814 5808 5802 5795 5788 5780 5773 5764 5756 5747 5737 5728 5717 5706 5694 5682 5669
5880 5879 5877 5875 5874 5873 5871 5869 5868 5866 5865 5863 5861 5860 5858 5855 5853 5851 5848 5845 5842 5838 5834 5829 5824 5819 5814 5808 5802 5796 5788 5781 5773 5764 5756 5747 5738 5728 5718 5706 5694 5682 5669 5656
5876 5875 5874 5872 5870 5869 5867 5865 5864 5862 5861 5859 5858 5856 5854 5851 5848 5846 5844 5841 5837 5833 5829 5824 5819 5814 5808 5802 5796 5789 5781 5773 5765 5756 5747 5738 5729 5719 5708 5696 5683 5669 5656 5642
5873 5871 5870 5868 5866 5864 5863 5861 5860 5858 5856 5855 5853 5851 5851 5847 5844 5841 5839 5835 5831 5828 5823 5818 5813 5808 5801 5795 5788 5781 5773 5765 5757 5748 5739 5730 5720 5709 5697 5685 5671 5658 5643 5628
5868 5867 5865 5863 5861 5860 5858 5856 5854 5852 5850 5850 5848 5845 5845 5842 5839 5836 5833 5829 5825 5821 5817 5812 5807 5801 5794 5787 5780 5773 5765 5757 5749 5740 5731 5721 5710 5699 5687 5674 5661 5646 5631 5616
5864 5863 5860 5859 5857 5855 5853 5851 5849 5846 5845 5844 5841 5838 5840 5837 5834 5830 5827 5823 5819 5815 5810 5805 5799 5793 5787 5780 5773 5765 5758 5749 5741 5732 5722 5712 5701 5689 5677 5664 5650 5636 5620 5604
5859 5858 5856 5853 5851 5849 5847 5846 5844 5840 5838 5837 5834 5832 5835 5831 5827 5823 5820 5817 5812 5808 5803 5798 5792 5786 5779 5772 5765 5757 5750 5741 5733 5723 5713 5703 5692 5680 5668 5655 5641 5625 5610 5594
5853 5853 5851 5848 5845 5844 5841 5839 5837 5833 5830 5828 5826 5826 5827 5824 5819 5816 5813 5809 5805 5800 5795 5790 5784 5778 5771 5764 5757 5749 5741 5733 5724 5715 5705 5694 5683 5671 5658 5645 5631 5616 5600 5584
5846 5847 5846 5842 5840 5837 5835 5832 5830 5826 5821 5818 5818 5818 5820 5817 5813 5809 5805 5801 5797 5792 5787 5782 5776 5770 5763 5756 5748 5741 5733 5724 5715 5706 5696 5685 5674 5662 5649 5636 5621 5606 5590 5574
5840 5840 5839 5837 5834 5831 5829 5826 5822 5818 5814 5810 5807 5812 5813 5809 5804 5800 5796 5792 5788 5784 5778 5773 5767 5761 5754 5747 5739 5732 5723 5715 5706 5697 5687 5676 5665 5653 5640 5627 5612 5597 5581 5565
5833 5832 5831 5830 5828 5824 5821 5819 5815 5811 5808 5802 5796 5802 5807 5801 5795 5790 5786 5782 5778 5774 5769 5764 5758 5752 5745 5738 5730 5722 5714 5705 5697 5687 5678 5667 5656 5644 5631 5618 5603 5588 5572 5556
5826 5824 5823 5822 5822 5817 5813 5810 5807 5803 5799 5794 5789 5792 5798 5793 5786 5781 5776 5772 5768 5765 5760 5754 5748 5742 5735 5728 5720 5713 5705 5696 5687 5678 5668 5658 5647 5635 5622 5609 5595 5580 5564 5548
5817 5816 5815 5814 5811 5807 5804 5803 5799 5794 5790 5785 5782 5781 5786 5783 5776 5770 5764 5761 5757 5754 5749 5744 5738 5732 5725 5718 5710 5703 5695 5686 5677 5668 5659 5649 5638 5626 5613 5600 5586 5571 5556 5540
5807 5807 5806 5804 5802 5797 5793 5793 5791 5785 5781 5776 5774 5771 5773 5770 5763 5759 5755 5750 5746 5743 5738 5732 5727 5721 5714 5707 5700 5693 5685 5676 5668 5659 5649 5639 5628 5617 5604 5592 5578 5563 5548 5533
5798 5796 5794 5794 5793 5787 5783 5784 5781 5777 5772 5768 5764 5761 5762 5755 5750 5746 5743 5739 5736 5731 5726 5721 5715 5709 5703 5697 5690 5682 5674 5666 5658 5649 5639 5629 5618 5607 5595 5583 5569 5555 5541 5526
5789 5786 5782 5781 5780 5775 5774 5777 5771 5767 5764 5758 5753 5752 5748 5743 5739 5734 5731 5727 5723 5719 5714 5709 5704 5698 5692 5686 5679 5671 5664 5656 5647 5638 5629 5619 5608 5597 5586 5574 5561 5547 5533 5519
5778 5775 5770 5767 5766 5762 5769 5765 5761 5756 5754 5749 5742 5739 5735 5731 5727 5723 5718 5714 5710 5706 5702 5697 5691 5686 5681 5674 5667 5661 5653 5645 5636 5627 5618 5608 5598 5587 5576 5565 5552 5539 5526 5512
5767 5763 5759 5754 5749 5747 5755 5754 5748 5742 5742 5738 5729 5726 5722 5718 5715 5712 5706 5701 5697 5693 5688 5684 5679 5674 5669 5662 5656 5649 5642 5633 5625 5616 5607 5597 5587 5577 5566 5555 5544 5531 5518 5505
5755 5751 5747 5742 5735 5734 5744 5740 5733 5728 5727 5724 5715 5711 5707 5703 5702 5699 5694 5689 5684 5680 5675 5671 5666 5662 5656 5650 5643 5636 5629 5621 5612 5604 5595 5586 5576 5566 5556 5546 5535 5523 5511 5498
5739 5737 5734 5729 5721 5721 5731 5726 5718 5714 5712 5707 5701 5697 5693 5689 5686 5684 5680 5675 5670 5666 5662 5657 5653 5648 5643 5636 5629 5623 5616 5608 5599 5592 5583 5574 5565 5556 5546 5536 5526 5515 5503 5491
5724 5721 5719 5715 5709 5711 5714 5708 5705 5700 5695 5690 5686 5682 5677 5673 5670 5667 5664 5660 5656 5652 5648 5643 5638 5634 5628 5621 5615 5609 5602 5594 5586 5579 5571 5562 5553 5545 5536 5526 5517 5507 5495 5484
5709 5708 5703 5699 5698 5698 5694 5691 5688 5682 5677 5673 5668 5665 5661 5656 5654 5651 5648 5645 5641 5636 5632 5627 5622 5618 5613 5606 5600 5594 5587 5580 5572 5565 5558 5550 5542 5534 5525 5517 5508 5498 5488 5477
5695 5693 5687 5683 5683 5683 5679 5674 5670 5665 5658 5655 5651 5648 5643 5639 5637 5634 5632 5629 5625 5621 5616 5611 5606 5602 5597 5591 5585 5579 5572 5565 5558 5552 5545 5538 5531 5523 5515 5507 5499 5490 5480 5470
5680 5677 5672 5668 5669 5665 5662 5658 5653 5647 5643 5639 5635 5631 5627 5624 5621 5617 5614 5612 5608 5604 5600 5595 5590 5586 5582 5576 5571 5565 5558 5552 5546 5539 5533 5526 5519 5512 5505 5498 5490 5481 5473 5463
5667 5662 5657 5653 5653 5645 5642 5638 5634 5629 5626 5623 5619 5616 5613 5608 5604 5601 5599 5595 5591 5588 5584 5580 5575 5571 5566 5561 5556 5551 5545 5539 5533 5528 5521 5514 5508 5501 5495 5488 5481 5473 5465 5456